#timestamp,LO_Frequency,Hit,StdDev 
1459724415.1,286046997.5,P
1459724416.0,286046997.5,N
1459724435.8,286046996.8,P
1459724455.6,286046997.7,N
1459724475.5,286046997.5,Y
1459724495.3,286046998.9,P
1459724515.1,286046998.7,N
1459724535.9,286046998.7,N
1459724555.7,286046998.3,Y
1459724575.5,286047000.5,P
1459724595.4,286047002.6,N
1459724615.2,286047001.9,N
1459724635.0,286046999.7,N
1459724635.9,286046999.7,N
1459724655.8,286047002.7,N
1459724675.6,286046999.7,N
1459724695.4,286046998.2,N
1459724715.3,286046998.7,N
1459724735.1,286047002.4,N
1459724736.0,286047002.4,N
1459724755.8,286047001.2,N
1459724775.7,286047000.4,N
1459724795.5,286046999.7,N
1459724815.3,286047004.0,N
1459724835.2,286047002.1,N
1459724855.9,286047001.9,N
1459724875.7,286046999.8,N
1459724895.5,286046999.8,N
1459724915.4,286047002.1,N
1459724935.2,286047002.1,N
1459724955.0,286047003.9,N
1459724955.9,286047003.9,N
1459724975.8,286047001.5,N
1459724995.6,286047002.0,N
1459725015.4,286047001.5,N
1459725035.3,286047003.8,N
1459725055.1,286047005.5,Y
1459725075.8,286047001.4,P
1459725095.7,286047002.0,P
1459725115.5,286047004.2,P
1459725135.3,286047002.7,N
1459725155.2,286046998.6,N
1459725175.9,286047002.4,N
1459725195.7,286047000.7,N
1459725215.6,286047001.1,N
1459725235.4,286047000.6,N
1459725255.2,286047000.7,N
1459725275.0,286046998.1,N
1459725276.0,286046998.1,N
1459725295.8,286047000.5,N
1459725315.6,286047000.3,N
1459725335.4,286047000.5,N
1459725355.3,286047002.2,N
1459725375.1,286046999.7,N
1459725395.8,286047001.7,N
1459725415.7,286047003.6,N
1459725435.5,286047003.8,N
1459725455.3,286047004.0,N
1459725475.2,286047003.8,N
1459725495.9,286047005.4,Y
1459725515.7,286047001.4,P
1459725535.6,286047002.9,P
1459725555.4,286047005.6,P
1459725575.2,286047005.4,Y
1459725595.1,286047002.8,P
1459725596.0,286047002.8,P
1459725615.8,286047004.8,P
1459725635.6,286047006.9,Y
1459725655.5,286047002.2,P
1459725675.3,286047000.6,N
1459725695.1,286047000.5,N
1459725715.9,286046999.6,N
1459725735.7,286046998.8,N
1459725755.5,286046998.8,N
1459725775.4,286046996.5,N
1459725795.2,286046999.6,N
1459725815.0,286046999.5,N
1459725815.9,286046999.5,N
1459725835.8,286046997.7,N
1459725855.6,286046998.4,N
1459725875.4,286047001.1,N
1459725895.2,286047001.2,N
1459725915.1,286046998.1,N
1459725916.0,286046998.1,N
1459725935.8,286046996.8,N
1459725955.6,286046997.9,N
1459725975.5,286046999.2,N
1459725995.3,286046998.1,N
1459726015.1,286046998.3,N
1459726035.9,286046999.5,N
1459726055.7,286047002.3,N
1459726075.5,286047002.6,N
1459726095.4,286047000.5,N
1459726115.2,286046996.5,N
1459726135.0,286046996.8,N
1459726135.9,286046996.8,N
1459726155.8,286046999.0,N
1459726175.6,286046999.5,N
1459726195.4,286046997.3,N
1459726215.3,286046997.8,N
1459726235.1,286047000.0,N
1459726236.0,286047000.0,N
1459726255.8,286046998.1,N
1459726275.6,286046997.2,N
1459726295.5,286046997.0,N
1459726315.3,286046997.1,N
1459726335.1,286046998.8,N
1459726355.9,286046999.3,N
1459726375.7,286046994.9,Y
1459726395.5,286046996.8,P
1459726415.4,286046996.9,P
1459726435.2,286046994.9,P
1459726455.0,286046999.2,N
1459726455.9,286046999.2,N
1459726475.8,286046997.0,N
1459726495.6,286046999.4,N
1459726515.4,286046996.9,N
1459726535.3,286046996.5,N
1459726555.1,286046995.2,Y
1459726575.8,286047001.2,P
1459726595.7,286047001.2,N
1459726615.5,286046998.5,N
1459726635.3,286046996.5,N
1459726655.2,286046998.5,N
1459726675.9,286046999.2,N
1459726695.7,286046998.2,N
1459726715.5,286047001.2,N
1459726735.4,286046999.2,N
1459726755.2,286046997.3,N
1459726775.0,286047000.7,N
1459726775.9,286047000.7,N
1459726795.8,286046998.1,N
1459726815.6,286046999.6,N
1459726835.4,286047001.0,N
1459726855.3,286046999.0,N
1459726875.1,286046999.1,N
1459726895.8,286046999.7,N
1459726915.7,286047002.8,N
1459726935.5,286047000.3,N
1459726955.3,286046999.9,N
1459726975.2,286047000.0,N
1459726995.9,286047000.2,N
1459727015.7,286047000.8,N
1459727035.5,286046998.8,N
1459727055.4,286047002.3,N
1459727075.2,286046999.7,N
1459727095.0,286047002.4,N
1459727095.9,286047002.4,N
1459727115.8,286047000.9,N
1459727135.6,286046999.8,N
1459727155.4,286046999.3,N
1459727175.3,286046998.2,N
1459727195.1,286046998.3,N
1459727196.0,286046998.3,N
1459727215.8,286046997.1,N
1459727235.7,286046997.6,N
1459727255.5,286046996.5,N
1459727275.3,286046999.0,N
1459727295.2,286046996.7,N
1459727315.9,286046997.0,N
1459727335.7,286046998.5,N
1459727355.6,286047000.8,N
1459727375.4,286046999.2,N
1459727395.2,286046998.6,N
1459727415.0,286047000.5,N
1459727416.0,286047000.5,N
1459727435.8,286047000.0,N
1459727455.6,286047000.3,N
1459727475.4,286047001.0,N
1459727495.3,286046998.1,N
1459727515.1,286046996.6,N
1459727535.8,286046996.5,N
1459727555.7,286047000.7,N
1459727575.5,286047000.3,N
1459727595.3,286047002.7,N
1459727615.2,286047000.5,N
1459727635.9,286047000.1,N
1459727655.7,286047001.1,N
1459727675.6,286047002.3,N
1459727695.4,286046998.7,N
1459727715.2,286046998.2,N
1459727735.0,286046998.3,N
1459727736.0,286046998.3,N
1459727755.8,286047000.7,N
1459727775.6,286046998.5,N
1459727795.4,286046999.8,N
1459727815.3,286047004.2,N
1459727835.1,286047000.2,N
1459727855.8,286046998.6,N
1459727875.7,286046999.6,N
1459727895.5,286046998.8,N
1459727915.3,286046998.2,N
1459727935.2,286046999.7,N
1459727955.9,286047002.0,N
1459727975.7,286047002.4,N
1459727995.6,286047002.3,N
